Lafayette, LA

4:35 AM CDT on September 23, 2017 (GMT -0500)
Lafayette Regional

Weather History for KLFT - March, 2012

Change the Weather History Date:

Friday, March 9, 2012

  Actual Average Record
Temperature  
Mean Temperature 61 °F 61 °F  
Max Temperature 72 °F 71 °F 91 °F (1911)
Min Temperature 50 °F 51 °F 25 °F (1996)
Degree Days  
Heating Degree Days 4 6  
Month to date heating degree days 30 59  
Since 1 July heating degree days 1023 1289  
Cooling Degree Days 0 2  
Month to date cooling degree days 34 12  
Year to date cooling degree days 102 44  
Growing Degree Days 12 (Base 50)    
Moisture  
Dew Point 59 °F    
Average Humidity 86    
Maximum Humidity 100    
Minimum Humidity 72    
Precipitation  
Precipitation 1.08 in 0.13 in 2.33 in (1921)
Month to date precipitation 1.38 1.23  
Year to date precipitation 12.94 11.35  
Snow  
Snow 0.00 in 0.00 in 0.00 in ()
Month to date snowfall 0.0 0.0  
Since 1 July snowfall 0.0 T  
Snow Depth 0.00 in    
Sea Level Pressure  
Sea Level Pressure 30.19 in    
Wind  
Wind Speed 11 mph (ENE)    
Max Wind Speed 24 mph    
Max Gust Speed 29 mph    
Visibility 7 miles    
Events Rain    
T = Trace of Precipitation, MM = Missing Value Source: NWS Daily Summary

Daily Weather History Graph

Daily Weather History Graph

Search for Another Location

Airport or City:

Trip Planner

Search our weather history database for the weather conditions in past years. The results will help you decide how hot, cold, wet, or windy it might be!

Date:

Astronomy

Mar. 09, 2012 Rise Set
Actual Time 6:24 AM CST 6:12 PM CST
Civil Twilight 6:00 AM CST 6:36 PM CST
Nautical Twilight 5:32 AM CST 7:04 PM CST
Astronomical Twilight 5:04 AM CST 7:32 PM CST
Moon 7:59 PM CST (3/9) 6:53 AM CST (3/9)
Length of Visible Light 12h 36m
Length of Day
11h 48m
Full, 97% of the Moon is Illuminated
Mar 9
Full
Mar 14
Last Quarter
Mar 22
New
Mar 30
First Quarter
Apr 6
Full

Hourly Weather History & Observations

Time (CST) Temp. Dew Point Humidity Pressure Visibility Wind Dir Wind Speed Gust Speed Precip Events Conditions
12:36 AM 71.6 °F 69.8 °F 94% 30.10 in 8.0 mi South 6.9 mph - N/A   Overcast
12:53 AM 72.0 °F 69.1 °F 91% 30.10 in 8.0 mi SSW 6.9 mph - N/A   Overcast
1:11 AM 71.6 °F 69.8 °F 94% 30.11 in 7.0 mi SSW 5.8 mph - 0.00 in Rain Light Rain
1:34 AM 71.6 °F 69.8 °F 94% 30.11 in 4.0 mi SW 5.8 mph - 0.03 in Rain Rain
1:53 AM 71.1 °F 69.1 °F 93% 30.11 in 7.0 mi South 5.8 mph - 0.03 in   Mostly Cloudy
2:00 AM 71.6 °F 69.8 °F 94% 30.11 in 6.0 mi South 5.8 mph - N/A   Overcast
2:31 AM 71.6 °F 69.8 °F 94% 30.10 in 7.0 mi South 8.1 mph - N/A   Overcast
2:49 AM 69.8 °F 69.8 °F 100% 30.10 in 7.0 mi South 6.9 mph - N/A   Overcast
2:53 AM 70.0 °F 69.1 °F 97% 30.10 in 7.0 mi South 5.8 mph - N/A   Mostly Cloudy
3:10 AM 69.8 °F 69.8 °F 100% 30.09 in 7.0 mi South 6.9 mph - N/A   Overcast
3:34 AM 69.8 °F 69.8 °F 100% 30.09 in 7.0 mi South 4.6 mph - 0.00 in   Overcast
3:53 AM 70.0 °F 68.0 °F 93% 30.08 in 7.0 mi South 4.6 mph - 0.00 in   Overcast
4:11 AM 69.8 °F 68.0 °F 94% 30.09 in 7.0 mi WNW 3.5 mph - N/A   Overcast
4:53 AM 63.0 °F 61.0 °F 93% 30.12 in 10.0 mi NNE 9.2 mph - 0.01 in   Overcast
5:53 AM 63.0 °F 61.0 °F 93% 30.13 in 8.0 mi NE 9.2 mph - 0.00 in Rain Light Rain
6:53 AM 64.0 °F 61.0 °F 90% 30.16 in 10.0 mi NE 15.0 mph 26.5 mph 0.00 in   Overcast
7:50 AM 62.6 °F 60.8 °F 94% 30.20 in 2.5 mi ENE 11.5 mph 21.9 mph 0.16 in Rain Heavy Rain
7:53 AM 63.0 °F 60.1 °F 90% 30.21 in 2.5 mi ENE 10.4 mph 21.9 mph 0.20 in Rain Heavy Rain
8:07 AM 62.6 °F 60.8 °F 94% 30.20 in 1.5 mi East 11.5 mph 21.9 mph 0.29 in Rain Heavy Rain
8:23 AM 62.6 °F 60.8 °F 94% 30.20 in 2.5 mi East 9.2 mph 23.0 mph 0.38 in Rain Heavy Rain
8:46 AM 62.6 °F 60.8 °F 94% 30.23 in 3.0 mi ENE 6.9 mph 21.9 mph 0.51 in Rain Heavy Rain
8:53 AM 63.0 °F 60.1 °F 90% 30.20 in 3.0 mi East 9.2 mph - 0.54 in Rain Heavy Rain
9:38 AM 62.6 °F 60.8 °F 94% 30.23 in 4.0 mi East 5.8 mph - 0.20 in Rain Heavy Rain
9:53 AM 62.6 °F 60.8 °F 94% 30.21 in 6.0 mi East 5.8 mph - N/A Rain Light Rain
10:03 AM 62.6 °F 60.8 °F 94% 30.19 in 6.0 mi East 10.4 mph - 0.03 in Rain Heavy Rain
10:53 AM 53.1 °F 51.1 °F 93% 30.26 in 10.0 mi North 18.4 mph 27.6 mph 0.08 in   Overcast
11:33 AM 51.8 °F 48.2 °F 88% 30.24 in 10.0 mi NNE 19.6 mph 25.3 mph N/A   Overcast
11:53 AM 51.1 °F 48.9 °F 92% 30.25 in 10.0 mi North 18.4 mph 26.5 mph N/A   Overcast
12:53 PM 52.0 °F 51.1 °F 97% 30.23 in 4.0 mi NNE 15.0 mph 23.0 mph N/A   Overcast
1:53 PM 53.1 °F 51.1 °F 93% 30.25 in 4.0 mi NNE 15.0 mph 24.2 mph N/A   Overcast
2:53 PM 54.0 °F 51.1 °F 90% 30.25 in 10.0 mi NNE 16.1 mph 23.0 mph N/A   Overcast
3:48 PM 55.4 °F 51.8 °F 88% 30.25 in 10.0 mi NNE 15.0 mph - N/A   Overcast
3:53 PM 55.0 °F 51.1 °F 86% 30.25 in 10.0 mi NNE 16.1 mph - N/A   Overcast
4:53 PM 54.0 °F 50.0 °F 86% 30.25 in 10.0 mi NNE 15.0 mph - N/A   Overcast
5:30 PM 55.4 °F 51.8 °F 88% 30.26 in 10.0 mi NNE 12.7 mph - N/A   Overcast
5:53 PM 55.0 °F 51.1 °F 86% 30.26 in 10.0 mi NNE 10.4 mph - N/A   Overcast
6:53 PM 55.0 °F 51.1 °F 86% 30.27 in 10.0 mi NNE 10.4 mph - N/A   Overcast
7:53 PM 55.0 °F 51.1 °F 86% 30.32 in 10.0 mi North 11.5 mph - N/A   Overcast
8:53 PM 54.0 °F 48.0 °F 80% 30.33 in 10.0 mi North 10.4 mph - N/A   Overcast
9:53 PM 54.0 °F 46.9 °F 77% 30.32 in 10.0 mi NE 8.1 mph - N/A   Clear
10:53 PM 55.0 °F 46.9 °F 74% 30.28 in 10.0 mi NE 9.2 mph - N/A   Clear
11:53 PM 55.9 °F 48.0 °F 75% 30.27 in 10.0 mi ENE 9.2 mph - N/A   Partly Cloudy